Location: Newark
(37.8333°N, 119.5000°W)
Time: 13:22:37
(UTC+00:00)

Tiros 1 despin weight - Pass Details

Date: 24 August 2019
Orbit: 593 x 643 km, 48.2° (Epoch: 22 October)

Event Time Altitude Azimuth Distance (km) Brightness Sun altitude
Rises 08:55:30 0° 285° (WNW) 2,842 - -39.4°
Reaches altitude 10° 08:58:11 10° 300° (WNW) 1,947 - -39.2°
Maximum altitude 09:01:44 23° 353° (N) 1,318 - -39.0°
Exits shadow 09:05:18 10° 45° (NE) 1,963 ? -38.7°
Drops below altitude 10° 09:05:20 10° 46° (NE) 1,972 ? -38.7°
Sets 09:08:05 0° 61° (ENE) 2,889 ? -38.5°
